This is the latest recevied weather packets stored in our database for station/object KC1OEK-13. If no packets are shown the sender has not sent any weather packets the latest 10 day(s).
| Time | Temp. | Humidity | Pressure | Rain* | Wind** | Luminosity | Snow |
|---|---|---|---|---|---|---|---|
| 1787410376 | 20.56° C | 81% | 1020.6 hPa | 0 mm | - | 111 W/m² | - |
| 1787410070 | 20.56° C | 83% | 1020.6 hPa | 0 mm | - | 98 W/m² | - |
| 1787409767 | 20.56° C | 81% | 1020.5 hPa | 0 mm | - | 97 W/m² | - |
| 1787409478 | 20.56° C | 82% | 1020.5 hPa | 0 mm | - | 80 W/m² | - |
| 1787409158 | 20.56° C | 82% | 1020.5 hPa | 0 mm | - | 77 W/m² | - |
| 1787408853 | 20.56° C | 81% | 1020.5 hPa | 0 mm | - | 91 W/m² | - |
| 1787408549 | 20.56° C | 80% | 1020.5 hPa | 0 mm | - | 84 W/m² | - |
| 1787408244 | 20.56° C | 81% | 1020.6 hPa | 0 mm | - | 73 W/m² | - |
| 1787407940 | 20.56° C | 80% | 1020.5 hPa | 0 mm | - | 98 W/m² | - |
| 1787407634 | 20.56° C | 80% | 1020.6 hPa | 0 mm | - | 98 W/m² | - |
| 1787407330 | 20.56° C | 80% | 1020.5 hPa | 0 mm | - | 90 W/m² | - |
| 1787407026 | 20.56° C | 82% | 1020.4 hPa | 0 mm | - | 129 W/m² | - |
| 1787406722 | 20.56° C | 82% | 1020.4 hPa | 0 mm | - | 228 W/m² | - |
| 1787406416 | 20.56° C | 79% | 1020.6 hPa | 0 mm | - | 239 W/m² | - |
| 1787406113 | 20.56° C | 81% | 1020.5 hPa | 0 mm | - | 202 W/m² | - |
| 1787405808 | 20.56° C | 83% | 1020.6 hPa | 0 mm | - | 138 W/m² | - |
| 1787405504 | 20° C | 82% | 1020.5 hPa | 0 mm | - | 159 W/m² | - |
| 1787405199 | 20.56° C | 82% | 1020.2 hPa | 0 mm | - | 200 W/m² | - |
| 1787404896 | 19.44° C | 84% | 1020.5 hPa | 0 mm | - | 164 W/m² | - |
| 1787404285 | 18.89° C | 88% | 1020.2 hPa | 0 mm | - | 140 W/m² | - |
| 1787403980 | 18.89° C | 89% | 1020.4 hPa | 0 mm | - | 191 W/m² | - |
| 1787403676 | 18.89° C | 92% | 1020.4 hPa | 0 mm | - | 159 W/m² | - |
| 1787403369 | 18.89° C | 93% | 1020.6 hPa | 0 mm | - | 128 W/m² | - |
| 1787403066 | 18.33° C | 94% | 1020.5 hPa | 0 mm | - | 102 W/m² | - |
| 1787402761 | 18.33° C | 94% | 1020.7 hPa | 0 mm | - | 76 W/m² | - |
* Rain latest hour (hover to see other rain measurements)
** Current wind speed in m/s (hover to see current wind gust speed)